Tracking 25701 objects as of 3-Jul-2022
HD Live streaming from Space Station
objects crossing your sky now

FENGYUN 1C DEB

Track FENGYUN 1C DEB now!
10-day predictions


NORAD ID: 30553
Int'l Code: 1999-025AKT
Perigee: 747.1 km
Apogee: 802.7 km
Inclination: 99.1 °
Period: 100.2 minutes
Semi major axis: 7145 km
RCS: 0.027 m2 (small)
Launch date: May 10, 1999
Source: People's Republic of China (PRC)
Launch site: Taiyaun Space Center, China (TSC)

Note: This is SATELLITE DEBRIS
aabbcc
Your satellite tracking list
Your tracking list is empty




NASA's NSSDC Master Catalog

Two Line Element Set (TLE):
1 30553U 99025AKT 22183.88837396  .00001768  00000-0  60515-3 0  9991
2 30553  99.1488 153.1535 0038890 308.4839  51.2859 14.37208350802848
Source of the keplerian elements: AFSPC